Theta_e
336 321 325 326 320 321 325 329 334 338 340 339 339 336 333 330 329 329 329 326 321 316 314 314 314 312 311 310 309 309 309 309 313 324 334 339 341 341 342 343 345 341 339
322 319 324 324 318 318 320 324 328 334 336 337 337 336 332 328 328 327 324 318 314 313 312 311 310 311 311 312 312 312 311 310 308 309 323 326 334 338 341 341 341 343 337
320 319 321 322 317 317 318 321 325 329 332 335 336 334 331 327 325 324 319 314 313 311 311 312 313 313 314 315 315 314 314 313 313 311 309 326 335 330 337 340 342 341 337
320 318 319 321 316 316 317 319 322 325 329 331 332 333 330 326 326 323 317 314 312 312 313 313 314 316 319 320 320 320 319 315 315 318 331 326 332 331 333 339 339 341 338
320 318 318 318 317 317 317 317 319 322 325 328 330 330 329 326 324 321 316 313 312 312 314 315 316 319 323 325 326 327 328 321 321 335 337 330 334 329 327 328 338 339 338
320 318 317 317 317 318 317 317 317 319 320 323 326 327 327 325 323 320 315 313 312 313 315 316 318 322 325 326 328 328 329 329 330 338 337 333 335 327 326 325 327 339 338
320 318 317 316 317 318 317 317 317 317 317 320 324 325 325 323 322 320 315 313 312 314 316 319 320 323 326 328 330 330 327 326 328 330 334 335 332 328 326 328 329 337 339
321 319 317 316 316 317 317 317 316 316 316 317 322 322 321 320 320 318 316 313 312 313 316 319 321 325 327 329 332 332 327 325 324 326 333 333 332 329 330 330 320 331 340
322 319 318 317 316 317 317 316 316 316 316 316 316 316 317 318 318 317 315 314 312 313 315 319 324 325 326 328 330 329 326 326 325 327 329 333 332 330 333 331 321 324 333
325 322 320 319 317 316 316 316 315 315 315 315 315 315 315 315 315 315 314 313 313 313 315 319 325 326 328 328 328 326 326 327 328 329 328 334 333 332 333 330 324 319 329
334 326 324 321 319 317 317 316 315 315 315 315 314 314 314 314 314 314 314 313 313 313 314 317 323 325 328 329 329 326 327 327 328 328 332 333 334 333 333 330 328 324 329
342 332 325 323 321 320 319 317 316 315 315 314 314 314 314 314 315 314 314 314 314 314 315 316 321 325 329 329 328 327 326 328 332 332 335 336 336 334 334 331 328 329 335
339 340 335 324 322 321 321 319 317 317 316 315 315 314 314 315 316 317 317 318 316 316 318 318 320 326 327 328 327 328 326 329 337 336 335 335 336 336 337 330 325 326 334
346 343 338 335 325 321 320 319 319 318 318 317 316 315 315 315 317 319 319 319 319 318 320 319 320 320 324 327 327 328 326 329 337 339 339 337 336 335 332 327 324 324 329
346 347 345 341 335 328 322 321 320 320 319 318 318 317 317 317 318 318 319 320 321 322 326 325 324 322 323 324 326 325 326 329 336 338 340 335 335 332 330 329 326 324 326
339 347 347 345 341 336 331 326 322 322 324 326 328 330 328 326 323 321 321 321 323 325 330 330 330 329 327 327 327 326 327 331 334 337 340 335 333 332 331 331 330 329 332
338 341 346 346 344 340 336 335 336 337 337 338 338 338 339 340 339 337 333 331 329 327 331 333 333 332 331 332 331 331 333 335 337 338 339 334 332 332 332 332 330 330 332
338 340 343 346 345 343 341 341 341 341 341 340 340 340 341 342 343 341 340 338 336 334 332 334 335 334 333 333 333 333 335 336 337 339 338 336 335 335 332 333 331 330 330
335 336 341 343 341 342 343 343 343 343 342 343 342 343 343 344 345 343 343 341 339 337 334 336 335 336 335 335 334 333 334 337 338 339 337 336 335 335 334 333 332 332 330
331 336 337 336 334 336 338 340 343 344 345 346 346 347 346 345 346 345 345 343 342 340 337 336 337 337 336 336 336 335 338 338 339 337 335 335 335 335 335 334 332 332 332
327 332 334 335 335 336 342 344 346 347 344 342 339 339 346 345 345 347 347 344 343 341 340 338 338 338 337 338 337 336 335 335 336 335 335 335 333 335 334 334 334 332 332
326 330 334 333 338 339 341 342 345 345 344 341 340 342 344 347 348 347 347 345 344 343 342 341 339 339 338 336 334 334 335 333 335 335 336 334 334 335 334 334 333 332 331
327 330 335 335 335 342 342 344 347 345 341 342 342 340 337 339 339 342 344 347 346 344 344 343 341 340 338 336 335 335 334 334 325 333 335 335 335 334 334 334 333 332 332
326 329 333 337 340 344 345 343 341 335 335 333 331 333 335 337 338 341 345 348 347 345 345 344 342 341 340 336 335 335 334 332 330 329 333 333 334 335 334 334 332 332 332
322 326 330 333 335 341 342 338 335 333 330 327 328 334 336 336 342 345 348 349 347 345 345 344 343 341 340 338 336 336 336 334 332 325 326 327 333 333 333 333 332 331 331
321 327 331 333 334 334 334 334 332 330 329 331 335 340 339 345 348 348 348 347 346 345 345 344 343 342 340 337 338 337 336 332 329 327 325 324 325 331 331 332 331 329 328
Wind_Speed
25 36 34 32 32 32 30 27 24 22 20 20 18 17 17 17 16 16 15 14 12 10 10 8 7 7 5 4 4 3 3 3 5 5 6 7 7 7 6 7 6 8 9
45 40 36 34 33 33 32 29 26 23 21 20 18 17 16 15 15 14 13 12 11 10 9 9 8 8 7 6 5 4 4 5 5 5 6 6 7 6 5 4 4 6 8
45 42 38 36 34 33 32 29 27 25 22 20 19 17 15 14 14 13 11 10 9 9 9 8 8 7 7 6 5 5 5 5 5 6 6 6 5 5 5 5 5 7 8
47 43 40 38 35 33 32 30 28 26 24 22 19 17 15 14 12 11 10 9 8 9 8 8 8 7 7 6 6 6 5 5 5 6 5 5 5 5 6 6 7 7 8
47 44 42 40 37 35 32 30 28 27 26 23 20 18 16 14 13 11 10 9 9 9 9 9 9 8 7 6 5 5 5 6 5 4 4 3 13 9 7 5 6 8 9
48 45 43 42 39 37 33 31 28 26 24 24 22 20 18 15 14 12 11 11 10 11 10 9 9 8 7 6 5 4 4 5 5 4 1 5 15 10 7 4 5 9 11
48 45 44 42 39 37 34 32 30 27 25 24 23 22 19 17 15 14 13 12 12 12 11 10 10 10 9 8 7 5 3 4 6 5 2 4 15 10 7 5 7 10 12
51 47 45 42 39 37 35 33 31 28 26 24 23 22 20 18 17 15 15 14 14 14 12 12 12 11 9 8 8 6 3 4 6 6 4 3 16 12 8 5 7 11 12
48 48 45 43 40 36 35 33 30 28 26 24 23 21 20 19 18 17 17 16 16 16 15 14 14 13 11 10 10 8 6 7 7 6 6 5 15 14 9 6 6 11 13
45 46 45 41 40 37 34 32 30 27 26 24 23 22 20 20 20 20 19 19 20 19 18 17 17 15 14 13 11 9 8 10 11 7 7 5 16 15 11 8 7 10 14
35 41 41 41 39 37 35 33 30 27 25 24 23 23 22 23 23 22 22 21 22 22 20 20 19 18 16 15 14 11 10 13 12 10 8 8 16 16 13 10 8 10 14
27 38 41 40 38 36 34 33 32 30 29 28 27 26 26 26 25 25 24 23 23 24 23 23 22 20 18 18 18 15 14 15 15 12 11 11 14 18 14 10 9 12 13
39 36 38 40 38 37 34 33 32 32 30 30 29 28 28 27 27 27 27 26 25 25 27 25 25 24 23 22 21 18 15 17 17 15 12 13 14 17 14 9 8 13 15
34 41 41 40 41 40 38 36 35 34 32 31 31 31 31 30 30 30 29 29 27 28 30 28 28 28 26 25 23 22 19 20 20 18 17 18 19 19 14 10 9 12 16
24 30 37 40 42 41 41 38 36 35 34 33 32 32 33 33 33 32 32 32 29 29 30 28 29 29 28 28 25 25 22 21 21 19 17 14 19 18 13 11 10 12 16
31 31 35 37 39 38 39 37 36 34 32 31 32 31 32 32 33 33 33 33 31 32 32 29 30 29 29 28 26 25 24 22 21 22 18 21 22 18 17 13 11 11 15
25 32 35 38 37 36 36 35 33 30 31 31 33 31 29 29 32 31 31 31 30 32 31 30 30 29 27 26 24 23 23 22 20 25 20 25 21 20 18 16 12 11 14
27 25 29 35 39 35 36 33 30 27 29 32 33 33 30 28 32 31 31 31 28 30 31 32 30 30 28 25 24 24 24 26 23 21 19 22 19 19 22 20 16 13 14
26 35 36 33 30 33 34 33 31 29 29 33 33 33 31 29 31 33 31 32 28 29 31 31 31 29 28 26 26 28 27 27 24 20 18 19 20 20 22 24 20 16 16
21 30 39 40 34 28 29 37 37 34 34 32 34 32 34 30 30 30 31 34 29 29 31 31 30 29 27 26 27 27 25 23 20 17 18 21 19 20 22 25 23 19 18
23 30 45 39 41 44 41 33 32 34 38 39 37 36 38 35 34 33 33 35 30 31 34 31 29 27 23 19 17 16 16 14 15 17 18 18 17 16 17 21 22 17 21
32 28 40 45 41 44 45 41 32 38 45 41 36 33 31 32 32 32 34 34 30 33 31 30 29 20 18 18 9 4 1 4 11 18 21 15 15 12 14 17 18 19 21
29 26 35 41 45 49 50 42 30 28 18 22 27 27 27 27 31 32 33 33 30 34 29 24 25 23 15 16 16 7 1 4 1 3 4 11 13 11 14 15 16 16 18
29 26 31 41 48 48 48 39 37 29 23 29 27 25 23 27 23 30 32 30 28 28 24 24 22 21 18 13 12 11 7 5 3 2 2 5 8 10 10 11 9 15 20
36 31 29 34 45 45 48 44 38 33 30 26 26 20 22 23 24 29 29 26 28 25 22 23 22 20 20 19 13 8 10 6 4 3 2 4 6 7 9 9 9 12 18
33 32 33 31 41 40 37 36 36 34 29 28 25 19 22 22 25 26 24 24 23 22 22 24 22 19 19 17 16 14 11 5 5 3 2 4 3 3 5 8 9 12 14
Wind_Direction
175 164 163 158 149 146 145 145 145 143 143 139 137 134 133 134 133 132 131 130 130 131 129 132 134 138 142 145 142 137 131 124 120 119 109 95 86 82 96 121 129 113 116
159 163 165 161 153 149 148 149 149 149 148 146 146 144 144 141 139 137 137 135 135 131 130 133 136 134 128 123 118 112 105 102 113 134 128 115 106 96 94 114 150 144 135
156 162 165 165 157 153 152 154 154 154 156 156 156 155 155 151 148 149 144 142 140 138 139 142 139 136 132 129 121 114 108 106 113 114 124 141 131 119 113 119 126 153 148
158 163 168 168 162 157 156 158 161 160 163 165 165 166 167 162 160 158 158 158 158 157 160 159 154 152 148 144 138 128 119 118 126 117 111 179 170 172 138 144 150 162 169
161 165 171 170 167 161 162 164 167 169 170 171 172 175 176 173 170 174 179 178 180 178 177 174 174 169 162 160 156 145 137 130 145 113 62 208 178 182 152 153 173 174 178
163 169 174 173 170 165 167 169 173 176 177 178 179 181 183 183 183 188 194 195 195 194 192 191 187 185 182 181 188 177 166 165 177 173 89 187 182 176 165 177 195 189 182
166 173 177 176 174 169 172 175 177 181 185 186 185 185 188 191 196 199 206 207 210 209 205 205 203 201 195 200 211 210 191 211 210 232 319 201 199 184 190 203 200 198 194
169 175 178 178 179 175 176 180 182 185 189 193 194 193 194 197 202 208 214 217 220 222 217 219 216 215 212 217 229 237 242 245 245 252 228 248 206 199 203 215 205 204 201
172 176 180 181 181 180 180 184 187 190 195 198 202 205 205 207 210 214 220 225 227 230 226 227 224 223 223 227 239 253 267 271 265 269 232 216 206 206 209 214 206 211 210
175 179 182 183 183 183 184 187 190 194 200 205 209 214 216 217 219 221 222 226 231 233 233 233 231 232 233 235 240 253 263 270 269 269 232 219 208 207 212 206 212 218 217
177 184 187 186 187 187 188 189 194 196 204 210 214 218 222 224 225 226 227 228 233 236 237 237 237 239 238 243 248 251 257 266 270 265 229 234 215 214 213 208 221 220 210
183 190 193 192 192 192 192 194 197 199 204 211 216 220 223 228 230 232 233 233 235 240 241 241 240 240 241 242 248 250 252 263 272 264 242 253 229 216 213 215 221 214 211
193 191 198 199 198 195 198 200 203 205 209 214 219 225 229 230 233 232 233 232 233 238 241 240 241 241 242 243 246 248 253 259 268 271 261 262 235 218 216 227 227 214 212
186 194 198 202 201 201 203 206 209 210 213 218 223 227 230 232 234 236 237 237 237 239 241 241 242 243 244 246 249 253 253 257 266 274 269 263 234 219 224 223 222 220 216
188 191 199 200 200 202 207 208 213 217 221 225 229 232 234 235 238 240 241 242 240 241 240 242 244 245 246 247 248 253 254 256 258 270 266 244 226 216 223 225 219 223 222
196 195 205 208 204 200 205 210 214 218 223 228 231 233 236 239 241 242 243 243 243 244 242 241 244 245 247 249 249 252 256 256 255 262 269 230 214 213 223 224 227 223 224
191 196 204 207 202 202 202 209 211 217 222 228 233 234 235 238 240 239 239 239 241 244 244 241 240 245 247 251 251 250 252 259 256 257 250 226 220 230 229 224 219 229 227
180 184 205 206 207 203 207 212 215 223 227 234 236 239 237 240 242 241 239 242 237 239 241 239 238 239 242 243 247 249 249 253 257 254 246 228 252 244 232 234 228 234 234
220 202 194 197 206 214 215 214 222 228 235 236 242 241 241 241 244 240 243 248 239 234 234 236 235 235 235 239 243 248 251 249 250 252 249 252 260 255 240 234 232 234 233
214 214 187 186 203 209 220 219 220 225 233 242 245 241 241 245 247 246 248 247 242 233 233 230 230 232 232 240 245 245 248 244 232 243 253 263 264 258 246 250 229 232 235
234 221 225 218 216 204 206 209 216 221 227 235 238 237 238 241 245 247 245 242 238 232 232 233 225 225 220 229 222 227 231 235 243 255 260 262 267 255 252 249 240 232 232
244 223 228 228 221 209 205 209 210 215 224 225 228 234 239 242 240 239 239 236 232 228 229 228 227 219 219 199 178 144 228 270 250 261 262 259 258 251 247 240 237 241 240
235 221 221 218 217 206 207 207 199 211 208 214 227 234 242 251 245 240 238 234 227 222 219 220 220 219 198 203 212 182 121 225 343 333 279 256 259 262 252 253 247 233 231
228 224 215 208 202 203 202 197 197 202 207 232 245 250 249 259 259 236 231 225 220 211 216 223 217 216 213 190 200 204 192 151 172 323 291 266 252 253 251 252 231 223 223
251 237 224 223 209 200 199 204 209 218 226 241 253 255 254 257 246 226 219 211 213 218 223 219 211 212 211 209 196 184 205 201 209 137 244 282 253 247 248 237 226 227 228
266 239 223 212 213 207 210 214 220 224 228 233 238 229 238 235 216 211 201 203 205 212 218 213 214 211 213 210 204 202 184 176 196 162 186 243 237 244 224 212 220 215 210